Flag for Anguilla Weather past 2 weeks in The Valley, Anguilla

Now
77 °F

Passing clouds.


Feels Like: 79 °F
Forecast: 77 / 81 °F
Wind: 5 mph from East

Location: Juliana Airport - Saint Maarten

Current Time: Mar 31, 2015 at 9:50:00 PM

Latest Report: Mar 31, 2015 at 9:00 PM


Visibility: N/A

Pressure: 30.07 "Hg

Humidity: 69%

Dew point: 66 °F

Location of The ValleyLocation

Historic Weather in The Valley — Graph

°F

The Valley temperature yesterday

Maximum temperature yesterday: 84 °F (at 2:00 PM)
Minimum temperature yesterday: 75 °F (at 6:00 AM)
Average temperature yesterday: 80 °F

Past Weeks' High & Low Weather Summary

 TemperatureHumidityPressure
High84 °F (Mar 17, 1:00 PM)83% (Mar 28, 7:32 AM)30.18 "Hg (Mar 28, 7:32 AM)
Low73 °F (Mar 17, 3:00 AM)48% (Mar 30, 11:00 AM)29.95 "Hg (Mar 17, 2:00 AM)
Average79 °F67%30.04 "Hg
* Reported Mar 16 8:00 PM — Mar 31 8:00 PM, The Valley, Weather by CustomWeather, © 2015

Note: Actual official high and low records may vary slightly from our data, if they occured in-between our weather recording intervals... More about our weather records

Advertising

The Valley weather history for previous 24 hours

 ConditionsComfort  
Time TempWeatherWind HumidityBarometerVisibility
8:00 PM
Tue, Mar 31
75 °FPassing clouds.8 mph78%30.04 "HgN/A
7:00 PM77 °FPartly cloudy.7 mph74%30.01 "HgN/A
6:00 PM79 °FBroken clouds.9 mph70%30.01 "HgN/A
5:00 PM81 °FBroken clouds.13 mph62%29.98 "HgN/A
4:00 PM82 °FBroken clouds.12 mph58%29.98 "HgN/A
3:00 PM82 °FPartly sunny.10 mph51%30.01 "HgN/A
2:00 PM82 °FPartly sunny.10 mph55%30.01 "HgN/A
1:00 PM82 °FScattered clouds.9 mph55%30.04 "HgN/A
12:00 PM82 °FScattered clouds.9 mph51%30.07 "HgN/A
11:00 AM82 °FPassing clouds.9 mph55%30.07 "HgN/A
10:00 AM82 °FPassing clouds.9 mph51%30.09 "HgN/A
9:00 AM81 °FPassing clouds.8 mph51%30.07 "HgN/A
8:00 AM81 °FPassing clouds.8 mph51%30.07 "HgN/A
7:00 AM77 °FPassing clouds.7 mph61%30.04 "HgN/A
6:00 AM77 °FPassing clouds.7 mph61%30.01 "HgN/A
5:00 AM77 °FPassing clouds.8 mph61%30.01 "HgN/A
4:00 AM77 °FPassing clouds.8 mph69%29.98 "HgN/A
3:00 AM77 °FPassing clouds.8 mph69%29.98 "HgN/A
2:00 AM77 °FPassing clouds.8 mph69%30.01 "HgN/A
1:00 AM77 °FPassing clouds.10 mph69%30.01 "HgN/A
12:00 AM77 °FPassing clouds.10 mph74%30.01 "HgN/A
11:00 PM
Mon, Mar 30
77 °FPassing clouds.10 mph69%30.04 "HgN/A
10:00 PM79 °FPassing clouds.13 mph61%30.04 "HgN/A
9:00 PM79 °FPassing clouds.13 mph65%30.04 "HgN/A
Weather by CustomWeather, © 2015

See weather overviewHow to use our weather pages